Location: Poughquag
(41.6090°N, 73.6820°W)
Time: 02:58:51
(UTC-04:00)

Transit 2A Rocket - Pass Details

Date: 04 June 2020
Orbit: 584 x 919 km, 66.7° (Epoch: 06 July)

Event Time Altitude Azimuth Distance (km) Brightness Sun altitude
Rises 20:17:59 0° 154° (SSE) 3,034 7.6 0.3°
Reaches altitude 10° 20:21:41 10° 124° (ESE) 2,207 6.7 -0.3°
Maximum altitude 20:23:37 12° 101° (E) 2,105 6.7 -0.6°
Drops below altitude 10° 20:25:37 10° 78° (ENE) 2,301 7.1 -0.9°
Sets 20:29:40 0° 50° (NE) 3,324 8.1 -1.5°
